0 GLOBALSTAR M001 1 25162U 98008A 25186.53158036 -.00000077 00000-0 15050-3 0 9993 2 25162 52.0037 279.8328 0000959 276.6794 201.5488 12.38214273245987 0 GLOBALSTAR M004 1 25163U 98008B 25186.74789694 -.00000093 00000-0 59048-4 0 9991 2 25163 52.0022 357.5275 0002748 348.2258 86.6430 12.63397639264139 0 GLOBALSTAR M002 1 25164U 98008C 25186.32340322 -.00000040 00000-0 72612-3 0 9990 2 25164 51.9976 194.7307 0001445 192.8971 167.1812 11.61510774186171 0 GLOBALSTAR M003 1 25165U 98008D 25186.19799543 -.00000133 00000-0 -46128-3 0 9996 2 25165 51.9978 118.6420 0008271 332.8206 169.4214 12.12072885235401 0 GLOBALSTAR M014 1 25306U 98023A 25186.32608066 -.00000081 00000-0 -59805-4 0 9993 2 25306 51.9832 117.5661 0001515 27.3620 119.6792 11.65481466193285 0 GLOBALSTAR M006 1 25307U 98023B 25186.36053881 -.00000053 00000-0 46143-3 0 9995 2 25307 51.9905 170.6310 0002855 139.0889 10.1398 11.58176688218930 0 GLOBALSTAR M015 1 25308U 98023C 25186.50913242 -.00000082 00000-0 -18884-3 0 9992 2 25308 51.9820 269.5744 0012790 109.7126 10.6232 11.48860079196180 0 GLOBALSTAR M008 1 25309U 98023D 25186.90730134 -.00000128 00000-0 -25493-3 0 9999 2 25309 51.9957 143.7793 0002315 218.8339 175.5605 12.36070484240477 0 GLOBALSTAR M023 1 25621U 99004A 25186.39995875 -.00000174 00000-0 -38789-3 0 9997 2 25621 52.0129 357.9830 0010150 161.2047 227.8750 12.62506157218030 0 GLOBALSTAR M040 1 25622U 99004B 25186.63064328 -.00000091 00000-0 71083-4 0 9997 2 25622 51.9938 1.4631 0001707 84.8746 352.0927 12.62012100217587 0 GLOBALSTAR M036 1 25623U 99004C 25186.42673524 -.00000050 00000-0 48270-3 0 9995 2 25623 51.9933 192.2462 0010981 86.5526 65.7907 11.86608214181143 0 GLOBALSTAR M038 1 25624U 99004D 25186.75265670 -.00000080 00000-0 12256-3 0 9999 2 25624 51.9990 18.1053 0002730 89.8121 352.8517 12.32528822204623 0 GLOBALSTAR M022 1 25649U 99012A 25186.54741497 -.00000053 00000-0 40548-3 0 9993 2 25649 52.0021 240.9920 0002814 206.5322 301.8189 12.02501291178581 0 GLOBALSTAR M041 1 25650U 99012B 25186.17641689 -.00000065 00000-0 26280-3 0 9996 2 25650 52.0009 123.9998 0001938 358.1048 1.9781 11.96681686180431 0 GLOBALSTAR M046 1 25651U 99012C 25186.46594765 -.00000117 00000-0 -31610-3 0 9993 2 25651 52.0021 190.6784 0002231 289.4163 227.3134 12.09411658185875 0 GLOBALSTAR M037 1 25652U 99012D 25186.77103521 -.00000060 00000-0 24194-3 0 9999 2 25652 51.9995 127.4658 0001612 236.3162 132.5033 12.62448221213674 0 GLOBALSTAR M045 1 25676U 99019A 25186.61668346 -.00000075 00000-0 16451-3 0 9999 2 25676 51.9957 252.7436 0000537 191.2476 334.8616 12.27063365195650 0 GLOBALSTAR M019 1 25677U 99019B 25186.88585617 -.00000071 00000-0 19919-3 0 9996 2 25677 51.9895 23.6548 0001602 31.4882 75.6693 12.13872865187600 0 GLOBALSTAR M044 1 25678U 99019C 25186.57577238 -.00000039 00000-0 62891-3 0 9994 2 25678 51.9995 338.1799 0006809 79.7406 357.8714 11.90255091173496 0 GLOBALSTAR M042 1 25679U 99019D 25186.63299742 -.00000064 00000-0 26830-3 0 9994 2 25679 52.0033 358.8811 0002670 354.4381 82.7460 12.22083968187511 0 GLOBALSTAR M025 1 25770U 99031A 25186.81968826 -.00000068 00000-0 -14998-4 0 9994 2 25770 51.9809 116.1071 0001218 178.1681 214.2352 11.22559138141468 0 GLOBALSTAR M049 1 25771U 99031B 25186.32527420 -.00000035 00000-0 10644-2 0 9997 2 25771 51.9843 152.9281 0003033 30.0377 330.0593 11.12117010119448 0 GLOBALSTAR M047 1 25772U 99031C 25186.25236476 -.00000082 00000-0 -34670-3 0 9997 2 25772 51.9809 148.3364 0016798 294.8986 65.0074 11.31928850473153 0 GLOBALSTAR M052 1 25773U 99031D 25186.63234370 -.00000095 00000-0 -98770-3 0 9996 2 25773 51.9861 260.6502 0003045 201.3557 330.0924 11.15059915480563 0 GLOBALSTAR M035 1 25851U 99037A 25186.48272626 -.00000076 00000-0 -46835-3 0 9992 2 25851 51.9981 14.1651 0013969 14.5838 4.5778 11.04538616 98284 0 GLOBALSTAR M032 1 25852U 99037B 25186.37541191 -.00000026 00000-0 12972-2 0 9995 2 25852 51.9909 198.3471 0012216 197.6916 162.3459 11.19062025136828 0 GLOBALSTAR M051 1 25853U 99037C 25186.86990703 -.00000087 00000-0 -36703-3 0 9994 2 25853 51.9821 355.8226 0000375 155.7167 204.3661 11.42204618134547 0 GLOBALSTAR M030 1 25854U 99037D 25186.34282753 -.00000053 00000-0 46219-3 0 9992 2 25854 51.9848 162.0449 0003098 73.0502 287.0654 11.55108837152148 0 GLOBALSTAR M048 1 25872U 99041A 25186.64098265 -.00000069 00000-0 37679-4 0 9991 2 25872 51.9383 292.1241 0013588 214.6528 255.2138 11.33857679127072 0 GLOBALSTAR M026 1 25873U 99041B 25186.32707041 .00000030 00000-0 34719-2 0 9993 2 25873 51.9991 132.2803 0002265 313.5383 209.2396 11.06841411150498 0 GLOBALSTAR M043 1 25874U 99041C 25186.64189642 -.00000093 00000-0 -72561-3 0 9999 2 25874 51.9422 40.4994 0013462 346.7284 50.5873 11.25695343124959 0 GLOBALSTAR M028 1 25875U 99041D 25186.29595059 -.00000091 00000-0 60487-4 0 9996 2 25875 51.9608 139.0669 0063378 110.4546 250.3134 12.50584340192440 0 GLOBALSTAR M024 1 25883U 99043A 25186.56838897 -.00000124 00000-0 -20974-2 0 9990 2 25883 52.0053 339.1487 0002121 122.5594 314.7147 11.10167368116900 0 GLOBALSTAR M027 1 25884U 99043B 25185.96495868 -.00000086 00000-0 -82867-3 0 9998 2 25884 52.0230 58.9952 0022020 21.4010 338.7700 11.04371622143208 0 GLOBALSTAR M054 1 25885U 99043C 25186.49380838 -.00000033 00000-0 96982-3 0 9992 2 25885 52.0103 182.0452 0005688 209.9748 330.6766 11.39224850121133 0 GLOBALSTAR M053 1 25886U 99043D 25186.36038440 -.00000086 00000-0 -49450-3 0 9995 2 25886 51.9970 130.4662 0002990 103.9642 69.1386 11.27665650121498 0 GLOBALSTAR M058 1 25907U 99049A 25186.15202926 -.00000087 00000-0 -31646-4 0 9994 2 25907 51.9951 61.2040 0001872 322.5158 37.5546 11.93199963543689 0 GLOBALSTAR M050 1 25908U 99049B 25186.11662640 -.00000133 00000-0 -50168-3 0 9995 2 25908 52.0000 67.6346 0009863 66.4524 88.2676 12.07454336150354 0 GLOBALSTAR M033 1 25909U 99049C 25186.61584388 .00000003 00000-0 90603-3 0 9995 2 25909 51.9922 296.8245 0012968 300.7218 59.2351 12.20294733170712 0 GLOBALSTAR M055 1 25910U 99049D 25186.54947796 -.00000092 00000-0 16212-4 0 9999 2 25910 52.0036 306.8652 0007527 165.9973 194.1089 12.29429347170548 0 GLOBALSTAR M057 1 25943U 99058A 25186.47553871 -.00000056 00000-0 33479-3 0 9997 2 25943 51.9998 296.3039 0003000 66.0286 294.0878 12.24824290169175 0 GLOBALSTAR M059 1 25944U 99058B 25186.35766017 -.00000066 00000-0 24431-3 0 9992 2 25944 51.9991 158.0151 0000841 341.0976 186.0755 11.99980214576222 0 GLOBALSTAR M056 1 25945U 99058C 25186.44668845 -.00000073 00000-0 16711-3 0 9993 2 25945 51.9936 159.2651 0000836 231.1306 278.5569 12.04782322164826 0 GLOBALSTAR M031 1 25946U 99058D 25186.91501181 -.00000097 00000-0 -69969-4 0 9996 2 25946 51.9981 49.1970 0000758 182.4049 281.2007 12.16038496167069 0 GLOBALSTAR M039 1 25961U 99062A 25186.45556446 -.00000069 00000-0 19474-3 0 9994 2 25961 51.9818 213.0756 0002556 29.3808 330.7201 12.62329348182523 0 GLOBALSTAR M034 1 25962U 99062B 25186.59860803 -.00000066 00000-0 23588-3 0 9993 2 25962 51.9896 323.5287 0014774 77.8957 5.7503 11.79446425140569 0 GLOBALSTAR M029 1 25963U 99062C 25186.58287706 -.00000067 00000-0 23402-3 0 9994 2 25963 51.9817 45.4271 0002696 136.8506 238.6425 11.99898184171336 0 GLOBALSTAR M061 1 25964U 99062D 25186.41102341 -.00000073 00000-0 12385-3 0 9993 2 25964 51.9770 148.2920 0006362 357.8197 174.4334 11.76776404123320 0 GLOBALSTAR M063 1 26081U 00008A 25186.60216187 -.00000113 00000-0 -44468-3 0 9994 2 26081 51.9968 63.0738 0004870 1.1406 14.5835 11.86174227159768 0 GLOBALSTAR M062 1 26082U 00008B 25186.60065661 .00000023 00000-0 86701-3 0 9998 2 26082 51.9861 41.6341 0007410 144.4741 233.6016 12.43471382498913 0 GLOBALSTAR M060 1 26083U 00008C 25186.52741928 -.00000108 00000-0 -17052-3 0 9996 2 26083 52.0042 4.4512 0003609 149.0560 248.9774 12.17667128154601 0 GLOBALSTAR M064 1 26084U 00008D 25186.30900603 -.00000061 00000-0 32207-3 0 9996 2 26084 52.0004 162.4591 0001285 80.3777 279.7200 11.88534795169250 0 GLOBALSTAR M065 1 31571U 07020A 25186.29956627 -.00000067 00000-0 20501-3 0 9999 2 31571 51.9866 171.1388 0010206 349.3988 145.6609 12.62010082835690 0 GLOBALSTAR M069 1 31573U 07020C 25186.41188250 -.00000071 00000-0 19994-3 0 9993 2 31573 51.9928 153.6430 0000911 197.0297 332.5635 12.23446914836351 0 GLOBALSTAR M072 1 31574U 07020D 25186.64030858 -.00000081 00000-0 43176-4 0 9990 2 31574 51.9950 302.8448 0000880 40.5874 63.2059 11.91650000833668 0 GLOBALSTAR M071 1 31576U 07020F 25186.44899944 -.00000134 00000-0 -42406-3 0 9993 2 31576 52.0033 179.6557 0000643 150.6340 16.3870 12.18255990497163 0 GLOBALSTAR M067 1 32263U 07048A 25186.88398097 -.00000077 00000-0 15061-3 0 9990 2 32263 51.9748 341.2240 0001433 58.7413 98.1274 12.40674460812058 0 GLOBALSTAR M070 1 32264U 07048B 25186.20650056 -.00000096 00000-0 44893-4 0 9990 2 32264 51.9756 73.6090 0000722 74.2752 69.4018 12.62319678815945 0 GLOBALSTAR M066 1 32265U 07048C 25186.85559255 -.00000079 00000-0 12990-3 0 9994 2 32265 51.9631 332.0558 0003881 19.3742 139.4225 12.30048750818549 0 GLOBALSTAR M068 1 32266U 07048D 25186.53280994 -.00000064 00000-0 22304-3 0 9995 2 32266 51.9874 246.3351 0001348 167.9901 340.8431 12.62825788819873 0 GLOBALSTAR M079 1 37188U 10054A 25186.17441733 -.00000103 00000-0 22339-5 0 9998 2 37188 52.0043 85.0296 0000752 32.7560 132.2600 12.62265356678722 0 GLOBALSTAR M074 1 37189U 10054B 25186.11822362 -.00000104 00000-0 -40355-5 0 9994 2 37189 52.0012 84.5223 0000833 58.1505 89.6686 12.62266336679329 0 GLOBALSTAR M076 1 37190U 10054C 25186.92153514 -.00000115 00000-0 -61223-4 0 9999 2 37190 52.0035 82.2480 0000921 47.6567 33.3299 12.62263356679500 0 GLOBALSTAR M077 1 37191U 10054D 25186.57923359 -.00000099 00000-0 28145-4 0 9999 2 37191 52.0085 40.1518 0000854 72.7664 312.2852 12.62268796679476 0 GLOBALSTAR M075 1 37192U 10054E 25186.32045971 -.00000090 00000-0 79591-4 0 9990 2 37192 51.9939 126.3247 0000431 39.5830 128.7090 12.62265927678135 0 GLOBALSTAR M073 1 37193U 10054F 25186.60784462 -.00000099 00000-0 26429-4 0 9998 2 37193 52.0073 39.2825 0000906 66.1825 328.8218 12.62272339680164 0 GLOBALSTAR M083 1 37739U 11033A 25186.63112499 -.00000083 00000-0 11434-3 0 9992 2 37739 51.9881 347.9197 0000657 100.3881 339.1605 12.62259722649185 0 GLOBALSTAR M088 1 37740U 11033B 25186.62314220 -.00000090 00000-0 75464-4 0 9991 2 37740 52.0207 253.5316 0000511 150.6927 13.3883 12.62266436644728 0 GLOBALSTAR M091 1 37741U 11033C 25186.55738582 -.00000082 00000-0 11929-3 0 9991 2 37741 51.9969 217.2070 0000296 222.0574 303.5706 12.62269180645502 0 GLOBALSTAR M085 1 37742U 11033D 25186.90794051 -.00000088 00000-0 86125-4 0 9991 2 37742 51.9842 167.1590 0000214 318.0677 61.8876 12.62269658646551 0 GLOBALSTAR M081 1 37743U 11033E 25186.41033661 -.00000082 00000-0 12172-3 0 9995 2 37743 51.9934 171.4753 0000319 346.1918 169.9640 12.62267011646144 0 GLOBALSTAR M089 1 37744U 11033F 25186.21051424 -.00000100 00000-0 21027-4 0 9992 2 37744 51.9920 126.3060 0000676 53.9427 95.0024 12.62265169646961 0 GLOBALSTAR M084 1 38040U 11080A 25186.60346881 -.00000100 00000-0 19086-4 0 9993 2 38040 52.0031 352.4088 0001133 90.0139 344.6013 12.62266897624998 0 GLOBALSTAR M080 1 38041U 11080B 25186.48701773 -.00000089 00000-0 83846-4 0 9996 2 38041 52.0083 354.3619 0000787 128.7606 265.8516 12.62263824625102 0 GLOBALSTAR M082 1 38042U 11080C 25186.59880505 -.00000108 00000-0 -24499-4 0 9992 2 38042 52.0092 309.4846 0000668 148.6565 324.9865 12.62266921625823 0 GLOBALSTAR M092 1 38043U 11080D 25186.63490845 -.00000100 00000-0 21596-4 0 9998 2 38043 52.0097 39.7514 0000849 80.1122 317.4858 12.62264485624285 0 GLOBALSTAR M090 1 38044U 11080E 25186.62274065 -.00000106 00000-0 -10807-4 0 9992 2 38044 52.0128 303.2522 0000495 123.2502 340.6228 12.62261390625942 0 GLOBALSTAR M086 1 38045U 11080F 25186.82250569 -.00000098 00000-0 31148-4 0 9998 2 38045 51.9911 303.1378 0001047 40.8471 131.6673 12.62272163626013 0 GLOBALSTAR M097 1 39072U 13005A 25186.49443571 -.00000096 00000-0 43473-4 0 9990 2 39072 52.0029 218.7020 0000035 167.8396 192.2471 12.62265537573122 0 GLOBALSTAR M093 1 39073U 13005B 25186.46809928 -.00000082 00000-0 12249-3 0 9991 2 39073 51.9784 212.0560 0000084 255.4046 104.6811 12.62265886573071 0 GLOBALSTAR M094 1 39074U 13005C 25186.23065898 -.00000113 00000-0 -49862-4 0 9995 2 39074 51.9952 127.1784 0000515 5.0153 355.0718 12.62262802574658 0 GLOBALSTAR M096 1 39075U 13005D 25186.24380027 -.00000095 00000-0 49260-4 0 9991 2 39075 52.0043 175.6669 0000278 314.9584 45.1260 12.62265530573578 0 GLOBALSTAR M078 1 39076U 13005E 25186.53416808 .00000020 00000-0 68816-3 0 9995 2 39076 51.9866 259.2712 0000949 192.4149 167.6694 12.62259733572230 0 GLOBALSTAR M095 1 39077U 13005F 25186.56037827 -.00000085 00000-0 10377-3 0 9990 2 39077 51.9797 256.3773 0000481 206.2332 153.8510 12.62267984572093 0 GLOBALSTAR M087 1 52888U 22064A 25183.81968019 -.00000103 00000-0 34072-5 0 9992 2 52888 52.0007 46.2073 0000667 72.7949 287.2990 12.62263643147011